Terminal Aerodrome Forecast
Issued by NWS Duluth, MN

Home | Current Version | Previous Version | Text Only | Print | Product List | Glossary On
Versions: 1 2 3 4 5 6 7 8 9 10 11 12 13 14 15 16 17 18 19 20 21 22 23 24 25
000
FTUS43 KDLH 220756 AAA
TAFINL
TAF AMD
KINL 220756Z 2208/2306 15007KT P6SM BKN045 BKN070
     FM221000 16004KT P6SM VCTS SCT020 BKN040CB
     FM221100 VRB03KT 4SM -SHRA BR OVC015
     FM221300 00000KT 4SM BR SCT005 BKN040
     FM221500 12004KT P6SM BKN015
     FM230200 16008KT P6SM VCSH BKN100=

USA.gov is the U.S. government's official web portal to all federal, state and local government web resources and services.